{"data":{"norad_id":53916,"epoch":"2026-09-20T06:12:04.236768Z","epoch_age_seconds":107878,"freshness":"FRESH","line1":"1 53916U 22119AG  26263.25838237  .00000976  00000+0  43201-4 0  9991","line2":"2 53916  53.1594 124.9865 0001075  82.1198 277.9926 15.31697447221701","mean_motion":15.31697447,"eccentricity":0.0001075,"inclination_deg":53.1594,"raan_deg":124.9865,"arg_perigee_deg":82.1198,"mean_anomaly_deg":277.9926,"bstar":4.3201e-5,"rev_number":22170,"period_min":94.013344660226,"perigee_km":470.01135050127,"apogee_km":471.48386069147,"semimajor_km":6848.8846055964,"source":"CELESTRAK","updated_at":"2026-09-21T09:00:33.034180Z"}}